Regional Weather Roundup
Issued by NWS

Home | Current Version | Previous Version | Graphics & Text | Print | Product List | Glossary On
Versions: 1 2 3 4 5 6 7 8 9 10 11 12 13 14 15 16 17 18 19 20 21 22 23 24 25 26 27 28 29 30 31 32 33 34 35 36 37 38 39 40 41 42 43 44 45 46 47 48 49 50
000
ASUS43 KDTX 100810
RWRMI
MICHIGAN HOURLY REGIONAL WEATHER ROUNDUP
NATIONAL WEATHER SERVICE DETROIT/PONTIAC MI
400 AM EDT THU JUL 10 2014

NOTE: "FAIR" INDICATES FEW OR NO CLOUDS BELOW 12,000 FEET WITH NO
SIGNIFICANT WEATHER AND/OR OBSTRUCTION TO VISIBILITY.

MIZ047>049-052>055-059>063-066>070-074>076-081>083-100900-
SOUTHEAST LOWER MICHIGAN

CITY           SKY/WX    TMP DP  RH WIND       PRES   REMARKS
ADRIAN         CLEAR     59  54  83 N5        30.07S
ALMA           PTCLDY    55  52  89 N6        30.10R
ANN ARBOR      CLEAR     52  50  93 CALM      30.06S
BAD AXE        CLOUDY    55  54  98 CALM      30.09R
DETROIT CITY   PTCLDY    66  55  67 CALM      30.06R
DETROIT        MOCLDY    62  56  80 CALM      30.06S
FLINT          MOCLDY    57  54  89 W5        30.07R
GROSSE ILE     CLEAR     61  57  88 CALM      30.04S
HILLSDALE      CLEAR     56  55  98 CALM      30.09R
HOWELL         CLEAR     54  53  97 W5        30.07S

CITY           SKY/WX    TMP DP  RH WIND       PRES   REMARKS
JACKSON        CLEAR     54  52  93 NW3       30.08R
LAMBERTVILLE   CLEAR     57  54  88 CALM      30.07R
LANSING        CLEAR     54  51  90 NW3       30.09R
LAPEER         NOT AVBL
MASON          CLEAR     56  53  89 CALM      30.08S
MONROE         CLEAR     57  54  88 CALM      30.04S
MT. CLEMENS    CLEAR     56  54  94 CALM      30.05R
PONTIAC        CLEAR     57  54  89 CALM      30.06R
PORT HOPE        N/A     55  53  93 W6        30.07R
PORT HURON     MOCLDY    55  55 100 CALM      30.06S FOG
TRI CITIES     CLOUDY    59  52  77 N7        30.10R
YPSILANTI      PTCLDY    63  56  78 NW3       30.07R
$$
MIZ043>046-050>051-056>058-064>065-071>073-077>080-100900-
SOUTHWEST LOWER MICHIGAN

CITY           SKY/WX    TMP DP  RH WIND       PRES   REMARKS
BATTLE CREEK   CLEAR     56  52  86 CALM      30.10R
BENTON HARBOR  CLEAR     54  52  93 CALM      30.10R
BIG RAPIDS     CLEAR     51  51 100 CALM      30.11R
COLDWATER      CLEAR     56  54  95 CALM      30.09S
HOLLAND        CLEAR     55  52  89 CALM      30.11R
GRAND RAPIDS   CLEAR     57  53  86 CALM      30.10S
KALAMAZOO      CLEAR     57  53  86 N3        30.10R
MARSHALL       CLEAR     53  52  97 CALM      30.09R
MUSKEGON       CLEAR     57  52  83 N6        30.12R
$$
MIZ016>042-100900-
NORTHERN LOWER MICHIGAN

CITY           SKY/WX    TMP DP  RH WIND       PRES   REMARKS
ALPENA         PTCLDY    49  48  97 W5        30.10R
BEAVER ISLAND    N/A     43  43 100 CALM      30.11R
BELLAIRE       CLEAR     45  44  95 CALM      30.11R FOG
CADILLAC       FOG       44  43  98 CALM      30.11R VSB 1/4
CHARLEVOIX     CLEAR     48  47  97 CALM      30.14R
FRANKFORT      SUNNY     47  44  89 CALM      30.11R
GAYLORD        CLEAR     46  43  89 CALM      30.11R
GRAYLING       FOG       40  40 100 CALM      30.11S VSB 3/4
HARBOR SPRINGS CLEAR     47  46  96 CALM      30.09S
HOUGHTON LAKE  FOG       44  44 100 CALM      30.11S VSB 1/2
MANISTEE       MOCLDY    46  45  93 E5        30.12R VSB 1
OSCODA         CLEAR     50  48  92 CALM      30.09R
PELLSTON       CLEAR     42  41  96 CALM      30.11R
TRAVERSE CITY  CLEAR     50  47  89 CALM      30.10R
$$
MIZ007>008-015-100900-
EASTERN UPPER MICHIGAN

CITY           SKY/WX    TMP DP  RH WIND       PRES   REMARKS
KINROSS        PTCLDY    45  45 100 W3        30.08R
MACKINAC ISLAN CLEAR     48  47  97 W6        30.09R
NEWBERRY       CLEAR     41  40  97 SW5       30.09R
S. S. MARIE    PTCLDY    47  44  90 CALM      30.07R
$$
MIZ004>006-011>014-085-100900-
CENTRAL UPPER MICHIGAN

CITY           SKY/WX    TMP DP  RH WIND       PRES   REMARKS
MANISTIQUE     CLEAR     41  40  96 W3        30.09R
ESCANABA       CLEAR     45  43  93 CALM      30.09R
MENOMINEE      CLEAR     48  46  93 CALM      30.09R
SAWYER-GWINN   CLEAR     45  42  89 CALM      30.09R
$$
MIZ001>003-009>011-084-100900-
WESTERN UPPER MICHIGAN

CITY           SKY/WX    TMP DP  RH WIND       PRES   REMARKS
IRON MOUNTAIN  PTCLDY    43  41  93 N3        30.09R FOG
HOUGHTON       CLEAR     46  42  86 CALM      30.06R
COPPER HARBOR    N/A     53  44  71 VRB3      30.05R
$$

ABBREVIATIONS USED IN REMARKS
   TC - TEMPERATURE IN CELSIUS
  WCI - WIND CHILL INDEX
   HX - HEAT INDEX
  VSB - VISIBILITY




USA.gov is the U.S. government's official web portal to all federal, state and local government web resources and services.